| time (UTC) | temp F | wind direction | speed knots | gust knots | rain 1hr in | rain 24hr in | rain mn in | humidity % | barometer mb |
| 20260506195235 | 61 | 179 | 1.7 | 16.5 | 0.00 | 0.00 | 0.00 | 76 | 1016.1 |
| 20260506194730 | 61 | 252 | 4.3 | 16.5 | 0.00 | 0.00 | 0.00 | 76 | 1016.1 |
| 20260506194223 | 61 | 128 | 0.9 | 12.2 | 0.00 | 0.00 | 0.00 | 76 | 1016.2 |
| 20260506193717 | 61 | 245 | 3.5 | 12.2 | 0.00 | 0.00 | 0.00 | 76 | 1016.1 |
| 20260506193211 | 61 | 116 | 0.9 | 11.3 | 0.00 | 0.00 | 0.00 | 76 | 1016.1 |
| 20260506192705 | 60 | 198 | 1.7 | 14.8 | 0.00 | 0.00 | 0.00 | 76 | 1016.2 |
| 20260506192159 | 61 | 197 | 1.7 | 14.8 | 0.00 | 0.00 | 0.00 | 76 | 1016.2 |
| 20260506191653 | 62 | 172 | 1.7 | 14.8 | 0.00 | 0.00 | 0.00 | 76 | 1016.3 |
| 20260506191147 | 62 | 150 | 0.9 | 11.3 | 0.00 | 0.00 | 0.00 | 76 | 1016.3 |
| 20260506190641 | 62 | 161 | 1.7 | 13.9 | 0.00 | 0.00 | 0.00 | 76 | 1016.3 |
| 20260506190135 | 61 | 217 | 1.7 | 13.9 | 0.00 | 0.00 | 0.00 | 75 | 1016.4 |
| 20260506185629 | 62 | 239 | 1.7 | 12.2 | 0.00 | 0.00 | 0.00 | 75 | 1016.5 |
| 20260506185123 | 62 | 216 | 1.7 | 13.9 | 0.00 | 0.00 | 0.00 | 75 | 1016.4 |
| 20260506184617 | 62 | 244 | 2.6 | 15.6 | 0.00 | 0.00 | 0.00 | 75 | 1016.4 |
| 20260506184111 | 61 | 245 | 3.5 | 15.6 | 0.00 | 0.00 | 0.00 | 75 | 1016.6 |
| 20260506183605 | 62 | 262 | 4.3 | 14.8 | 0.00 | 0.00 | 0.00 | 75 | 1016.5 |
| 20260506183100 | 63 | 261 | 3.5 | 14.8 | 0.00 | 0.00 | 0.00 | 75 | 1016.6 |
| 20260506182553 | 62 | 270 | 5.2 | 14.8 | 0.00 | 0.00 | 0.00 | 75 | 1016.5 |
| 20260506182047 | 62 | 254 | 2.6 | 13.0 | 0.00 | 0.00 | 0.00 | 75 | 1016.6 |
| 20260506181541 | 63 | 277 | 5.2 | 13.0 | 0.00 | 0.00 | 0.00 | 75 | 1016.7 |
| 20260506181035 | 63 | 241 | 1.7 | 10.4 | 0.00 | 0.00 | 0.00 | 75 | 1016.7 |
| 20260506180529 | 63 | 274 | 4.3 | 10.4 | 0.00 | 0.00 | 0.00 | 75 | 1016.8 |
| 20260506180023 | 63 | 278 | 4.3 | 11.3 | 0.00 | 0.00 | 0.00 | 75 | 1016.8 |
| 20260506175517 | 64 | 278 | 3.5 | 9.6 | 0.00 | 0.00 | 0.00 | 75 | 1016.7 |
| 20260506175011 | 64 | 209 | 2.6 | 11.3 | 0.00 | 0.00 | 0.00 | 75 | 1016.8 |
| 20260506174505 | 64 | 266 | 4.3 | 11.3 | 0.00 | 0.00 | 0.00 | 75 | 1016.7 |
| 20260506173959 | 66 | 265 | 1.7 | 0.0 | 0.00 | 0.00 | 0.00 | 75 | 1016.8 |
| 20260506173453 | 64 | 280 | 1.7 | 0.0 | 0.00 | 0.00 | 0.00 | 75 | 1016.8 |
| 20260506172947 | 61 | 309 | 2.6 | 0.0 | 0.00 | 0.00 | 0.00 | 75 | 1016.7 |
| 20260506172441 | 62 | 313 | 4.3 | 0.0 | 0.00 | 0.00 | 0.00 | 75 | 1016.7 |
| 20260506171935 | 63 | 325 | 0.9 | 0.0 | 0.00 | 0.00 | 0.00 | 74 | 1016.7 |
| 20260506171429 | 63 | 278 | 2.6 | 12.2 | 0.00 | 0.00 | 0.00 | 74 | 1016.7 |
| 20260506170923 | 61 | 261 | 1.7 | 12.2 | 0.00 | 0.00 | 0.00 | 74 | 1016.7 |
| 20260506170417 | 60 | 277 | 5.2 | 12.2 | 0.00 | 0.00 | 0.00 | 74 | 1016.6 |
| 20260506165911 | 60 | 279 | 7.0 | 13.9 | 0.00 | 0.00 | 0.00 | 74 | 1016.6 |
| 20260506165405 | 59 | 283 | 4.3 | 13.9 | 0.00 | 0.00 | 0.00 | 74 | 1016.7 |
| 20260506164859 | 60 | 293 | 3.5 | 11.3 | 0.00 | 0.00 | 0.00 | 74 | 1016.6 |
| 20260506164353 | 60 | 279 | 4.3 | 12.2 | 0.00 | 0.00 | 0.00 | 74 | 1016.6 |
| 20260506163847 | 60 | 278 | 5.2 | 12.2 | 0.00 | 0.00 | 0.00 | 74 | 1016.5 |
| 20260506163341 | 60 | 272 | 2.6 | 13.0 | 0.00 | 0.00 | 0.00 | 74 | 1016.5 |
| 20260506162835 | 59 | 277 | 7.0 | 13.0 | 0.00 | 0.00 | 0.00 | 74 | 1016.5 |
| 20260506162329 | 60 | 277 | 3.5 | 0.0 | 0.00 | 0.00 | 0.00 | 74 | 1016.5 |
| 20260506161823 | 60 | 285 | 2.6 | 10.4 | 0.00 | 0.00 | 0.00 | 74 | 1016.5 |
| 20260506161317 | 59 | 277 | 3.5 | 10.4 | 0.00 | 0.00 | 0.00 | 74 | 1016.5 |
| 20260506160811 | 59 | 274 | 1.7 | 0.0 | 0.00 | 0.00 | 0.00 | 74 | 1016.5 |
| 20260506160305 | 58 | 291 | 2.6 | 10.4 | 0.00 | 0.00 | 0.00 | 74 | 1016.4 |
| 20260506155759 | 56 | 290 | 4.3 | 10.4 | 0.00 | 0.00 | 0.00 | 74 | 1016.5 |
| 20260506155253 | 56 | 309 | 2.6 | 12.2 | 0.00 | 0.00 | 0.00 | 74 | 1016.5 |
| 20260506154747 | 55 | 306 | 2.6 | 12.2 | 0.00 | 0.00 | 0.00 | 74 | 1016.4 |
| 20260506154241 | 56 | 289 | 5.2 | 9.6 | 0.00 | 0.00 | 0.00 | 73 | 1016.4 |
| 20260506153735 | 56 | 302 | 4.3 | 0.0 | 0.00 | 0.00 | 0.00 | 73 | 1016.4 |
| 20260506153229 | 56 | 302 | 1.7 | 0.0 | 0.00 | 0.00 | 0.00 | 73 | 1016.4 |
| 20260506152723 | 57 | 326 | 0.9 | 0.0 | 0.00 | 0.00 | 0.00 | 73 | 1016.5 |
| 20260506152217 | 56 | 319 | 0.9 | 0.0 | 0.00 | 0.00 | 0.00 | 73 | 1016.5 |
| 20260506151711 | 55 | 316 | 3.5 | 0.0 | 0.00 | 0.00 | 0.00 | 73 | 1016.4 |
| 20260506151205 | 55 | 311 | 3.5 | 0.0 | 0.00 | 0.00 | 0.00 | 73 | 1016.5 |
| 20260506150659 | 55 | 322 | 2.6 | 0.0 | 0.00 | 0.00 | 0.00 | 72 | 1016.5 |
| 20260506150153 | 55 | 313 | 0.9 | 0.0 | 0.00 | 0.00 | 0.00 | 72 | 1016.4 |
| 20260506145647 | 54 | 313 | 1.7 | 0.0 | 0.00 | 0.00 | 0.00 | 72 | 1016.4 |
| 20260506145141 | 54 | 327 | 2.6 | 0.0 | 0.00 | 0.00 | 0.00 | 72 | 1016.4 |
| 20260506144635 | 54 | 320 | 2.6 | 9.6 | 0.00 | 0.00 | 0.00 | 72 | 1016.4 |
| 20260506144129 | 53 | 317 | 4.3 | 9.6 | 0.00 | 0.00 | 0.00 | 72 | 1016.4 |
| 20260506143623 | 53 | 325 | 3.5 | 9.6 | 0.00 | 0.00 | 0.00 | 72 | 1016.4 |
| 20260506143117 | 52 | 325 | 3.5 | 9.6 | 0.00 | 0.00 | 0.00 | 72 | 1016.4 |
| 20260506142611 | 52 | 316 | 5.2 | 9.6 | 0.00 | 0.00 | 0.00 | 72 | 1016.3 |
| 20260506142105 | 52 | 319 | 5.2 | 9.6 | 0.00 | 0.00 | 0.00 | 72 | 1016.3 |
| 20260506141559 | 52 | 318 | 4.3 | 8.7 | 0.00 | 0.00 | 0.00 | 72 | 1016.3 |
| 20260506141053 | 52 | 320 | 3.5 | 0.0 | 0.00 | 0.00 | 0.00 | 71 | 1016.3 |
| 20260506140547 | 52 | 315 | 2.6 | 0.0 | 0.00 | 0.00 | 0.00 | 71 | 1016.1 |
| 20260506140041 | 51 | 306 | 2.6 | 0.0 | 0.00 | 0.00 | 0.00 | 71 | 1016.1 |
| 20260506135535 | 51 | 301 | 1.7 | 0.0 | 0.00 | 0.00 | 0.00 | 71 | 1016.0 |
| 20260506135029 | 50 | 298 | 3.5 | 0.0 | 0.00 | 0.00 | 0.00 | 71 | 1016.0 |
| 20260506134523 | 50 | 297 | 2.6 | 0.0 | 0.00 | 0.00 | 0.00 | 71 | 1015.9 |
| 20260506134017 | 50 | 310 | 2.6 | 0.0 | 0.00 | 0.00 | 0.00 | 71 | 1015.9 |
| 20260506133511 | 50 | 315 | 1.7 | 0.0 | 0.00 | 0.00 | 0.00 | 71 | 1015.8 |
| 20260506133005 | 49 | 322 | 3.5 | 0.0 | 0.00 | 0.00 | 0.00 | 71 | 1015.8 |
| 20260506132459 | 49 | 324 | 2.6 | 0.0 | 0.00 | 0.00 | 0.00 | 71 | 1015.7 |
| 20260506131953 | 49 | 322 | 2.6 | 0.0 | 0.00 | 0.00 | 0.00 | 71 | 1015.8 |
| 20260506131447 | 48 | 315 | 2.6 | 0.0 | 0.00 | 0.00 | 0.00 | 71 | 1015.7 |
| 20260506130941 | 48 | 294 | 0.9 | 0.0 | 0.00 | 0.00 | 0.00 | 71 | 1015.7 |
| 20260506130435 | 48 | 309 | 1.7 | 0.0 | 0.00 | 0.00 | 0.00 | 71 | 1015.7 |
| 20260506125929 | 48 | 313 | 2.6 | 0.0 | 0.00 | 0.00 | 0.00 | 71 | 1015.7 |
| 20260506125423 | 48 | 310 | 3.5 | 0.0 | 0.00 | 0.00 | 0.00 | 71 | 1015.7 |
| 20260506124917 | 48 | 300 | 3.5 | 0.0 | 0.00 | 0.00 | 0.00 | 71 | 1015.7 |
| 20260506124411 | 48 | 306 | 1.7 | 0.0 | 0.00 | 0.00 | 0.00 | 71 | 1015.8 |
| 20260506123905 | 48 | 297 | 3.5 | 0.0 | 0.00 | 0.00 | 0.00 | 71 | 1015.8 |
| 20260506123359 | 48 | 299 | 2.6 | 0.0 | 0.00 | 0.00 | 0.00 | 71 | 1015.8 |
| 20260506122853 | 47 | 305 | 1.7 | 0.0 | 0.00 | 0.00 | 0.00 | 71 | 1015.7 |
| 20260506122347 | 47 | 287 | 0.0 | 0.0 | 0.00 | 0.00 | 0.00 | 71 | 1015.7 |
| 20260506121841 | 48 | 319 | 1.7 | 0.0 | 0.00 | 0.00 | 0.00 | 71 | 1015.7 |
| 20260506121335 | 48 | 316 | 2.6 | 0.0 | 0.00 | 0.00 | 0.00 | 71 | 1015.7 |
| 20260506120829 | 48 | 321 | 1.7 | 0.0 | 0.00 | 0.00 | 0.00 | 72 | 1015.8 |
| 20260506120323 | 48 | 318 | 1.7 | 0.0 | 0.00 | 0.00 | 0.00 | 72 | 1015.8 |
| 20260506115817 | 48 | 314 | 1.7 | 0.0 | 0.00 | 0.00 | 0.00 | 72 | 1015.8 |
| 20260506115311 | 48 | 321 | 1.7 | 0.0 | 0.00 | 0.00 | 0.00 | 72 | 1015.7 |
| 20260506114805 | 48 | 314 | 2.6 | 0.0 | 0.00 | 0.00 | 0.00 | 72 | 1015.7 |
| 20260506114259 | 48 | 316 | 1.7 | 0.0 | 0.00 | 0.00 | 0.00 | 72 | 1015.7 |
| 20260506113753 | 48 | 314 | 1.7 | 0.0 | 0.00 | 0.00 | 0.00 | 72 | 1015.8 |
| 20260506113247 | 48 | 317 | 3.5 | 0.0 | 0.00 | 0.00 | 0.00 | 72 | 1015.7 |
| 20260506112741 | 48 | 317 | 2.6 | 0.0 | 0.00 | 0.00 | 0.00 | 72 | 1015.7 |
| 20260506112235 | 48 | 320 | 1.7 | 0.0 | 0.00 | 0.00 | 0.00 | 72 | 1015.7 |
| 20260506111729 | 48 | 322 | 1.7 | 0.0 | 0.00 | 0.00 | 0.00 | 72 | 1015.7 |
| 20260506111223 | 48 | 320 | 1.7 | 0.0 | 0.00 | 0.00 | 0.00 | 72 | 1015.7 |
| 20260506110717 | 48 | 315 | 0.9 | 0.0 | 0.00 | 0.00 | 0.00 | 72 | 1015.6 |
| 20260506110211 | 48 | 315 | 1.7 | 0.0 | 0.00 | 0.00 | 0.00 | 72 | 1015.6 |
| 20260506105705 | 48 | 319 | 1.7 | 0.0 | 0.00 | 0.00 | 0.00 | 72 | 1015.6 |
| 20260506105159 | 48 | 315 | 0.9 | 0.0 | 0.00 | 0.00 | 0.00 | 72 | 1015.7 |
| 20260506104653 | 48 | 316 | 1.7 | 0.0 | 0.00 | 0.00 | 0.00 | 72 | 1015.7 |
| 20260506104147 | 48 | 328 | 0.9 | 0.0 | 0.00 | 0.00 | 0.00 | 72 | 1015.6 |
| 20260506103641 | 48 | 292 | 0.9 | 0.0 | 0.00 | 0.00 | 0.00 | 72 | 1015.6 |
| 20260506103135 | 48 | 293 | 3.5 | 0.0 | 0.00 | 0.00 | 0.00 | 72 | 1015.6 |
| 20260506102629 | 48 | 286 | 4.3 | 0.0 | 0.00 | 0.00 | 0.00 | 72 | 1015.7 |
| 20260506102123 | 48 | 274 | 1.7 | 0.0 | 0.00 | 0.00 | 0.00 | 72 | 1015.7 |
| 20260506101617 | 48 | 189 | 0.0 | 0.0 | 0.00 | 0.00 | 0.00 | 72 | 1015.7 |
| 20260506101111 | 48 | 268 | 0.9 | 0.0 | 0.00 | 0.00 | 0.00 | 72 | 1015.6 |
| 20260506100605 | 48 | 269 | 3.5 | 9.6 | 0.00 | 0.00 | 0.00 | 72 | 1015.5 |
| 20260506100059 | 48 | 257 | 1.7 | 10.4 | 0.00 | 0.00 | 0.00 | 72 | 1015.6 |
| 20260506095553 | 49 | 254 | 2.6 | 12.2 | 0.00 | 0.00 | 0.00 | 72 | 1015.6 |
| 20260506095047 | 49 | 265 | 4.3 | 13.9 | 0.00 | 0.00 | 0.00 | 72 | 1015.6 |
| 20260506094541 | 49 | 275 | 9.6 | 14.8 | 0.00 | 0.00 | 0.00 | 72 | 1015.5 |
| 20260506094035 | 49 | 281 | 12.2 | 16.5 | 0.00 | 0.00 | 0.00 | 73 | 1015.5 |
| 20260506093529 | 49 | 281 | 12.2 | 16.5 | 0.00 | 0.00 | 0.00 | 73 | 1015.6 |
| 20260506093023 | 49 | 282 | 13.0 | 17.4 | 0.00 | 0.00 | 0.00 | 73 | 1015.5 |
| 20260506092517 | 49 | 278 | 9.6 | 17.4 | 0.00 | 0.00 | 0.00 | 73 | 1015.6 |
| 20260506092011 | 49 | 281 | 10.4 | 19.1 | 0.00 | 0.00 | 0.00 | 73 | 1015.6 |
| 20260506091505 | 49 | 285 | 10.4 | 19.1 | 0.00 | 0.00 | 0.00 | 73 | 1015.6 |
| 20260506090959 | 49 | 286 | 10.4 | 15.6 | 0.00 | 0.00 | 0.00 | 73 | 1015.6 |
| 20260506090453 | 49 | 290 | 7.0 | 15.6 | 0.00 | 0.00 | 0.00 | 73 | 1015.7 |
| 20260506085947 | 49 | 291 | 8.7 | 16.5 | 0.00 | 0.00 | 0.00 | 73 | 1015.7 |
| 20260506085441 | 49 | 288 | 7.8 | 16.5 | 0.00 | 0.00 | 0.00 | 73 | 1015.9 |
| 20260506084935 | 49 | 285 | 7.0 | 17.4 | 0.00 | 0.00 | 0.00 | 73 | 1015.8 |
| 20260506084429 | 49 | 285 | 10.4 | 18.2 | 0.00 | 0.00 | 0.00 | 73 | 1015.9 |
| 20260506083923 | 49 | 286 | 9.6 | 13.9 | 0.00 | 0.00 | 0.00 | 73 | 1015.8 |
| 20260506083417 | 49 | 287 | 7.8 | 16.5 | 0.00 | 0.00 | 0.00 | 73 | 1015.8 |
| 20260506082911 | 49 | 288 | 10.4 | 16.5 | 0.00 | 0.00 | 0.00 | 73 | 1015.8 |
| 20260506082405 | 49 | 290 | 11.3 | 16.5 | 0.00 | 0.00 | 0.00 | 73 | 1015.7 |
| 20260506081859 | 49 | 295 | 8.7 | 15.6 | 0.00 | 0.00 | 0.00 | 73 | 1015.8 |
| 20260506081353 | 49 | 286 | 7.8 | 15.6 | 0.00 | 0.00 | 0.00 | 73 | 1015.8 |
| 20260506080847 | 49 | 290 | 9.6 | 18.2 | 0.00 | 0.00 | 0.00 | 73 | 1015.8 |
| 20260506080341 | 49 | 289 | 11.3 | 17.4 | 0.00 | 0.00 | 0.00 | 73 | 1015.7 |
| 20260506073305 | 49 | 289 | 10.4 | 19.1 | 0.00 | 0.00 | 0.00 | 74 | 1015.8 |
| 20260506072759 | 49 | 290 | 8.7 | 17.4 | 0.00 | 0.00 | 0.00 | 74 | 1015.8 |
| 20260506072253 | 49 | 287 | 9.6 | 17.4 | 0.00 | 0.00 | 0.00 | 74 | 1015.7 |
| 20260506071747 | 49 | 290 | 11.3 | 16.5 | 0.00 | 0.00 | 0.00 | 74 | 1015.6 |
| 20260506071241 | 49 | 293 | 9.6 | 15.6 | 0.00 | 0.00 | 0.00 | 74 | 1015.7 |
| 20260506070735 | 49 | 290 | 9.6 | 14.8 | 0.00 | 0.00 | 0.00 | 74 | 1015.7 |
| 20260506070229 | 49 | 292 | 7.8 | 13.9 | 0.00 | 0.00 | 0.00 | 74 | 1015.6 |
| 20260506062141 | 49 | 306 | 5.2 | 13.0 | 0.00 | 0.00 | 0.00 | 74 | 1015.5 |
| 20260506061635 | 49 | 305 | 6.1 | 13.0 | 0.00 | 0.00 | 0.00 | 74 | 1015.4 |
| 20260506061129 | 49 | 304 | 4.3 | 12.2 | 0.00 | 0.00 | 0.00 | 74 | 1015.4 |
| 20260506060623 | 49 | 293 | 4.3 | 12.2 | 0.00 | 0.00 | 0.00 | 74 | 1015.5 |
| 20260506060117 | 49 | 314 | 2.6 | 11.3 | 0.00 | 0.00 | 0.00 | 74 | 1015.5 |
| 20260506051017 | 49 | 294 | 7.8 | 17.4 | 0.00 | 0.00 | 0.00 | 74 | 1015.3 |
| 20260506050511 | 49 | 303 | 8.7 | 16.5 | 0.00 | 0.00 | 0.00 | 74 | 1015.3 |
| 20260506044953 | 49 | 295 | 9.6 | 20.9 | 0.00 | 0.00 | 0.00 | 75 | 1014.9 |
| 20260506044447 | 49 | 294 | 10.4 | 19.1 | 0.00 | 0.00 | 0.00 | 75 | 1014.8 |
| 20260506043941 | 49 | 295 | 9.6 | 19.1 | 0.00 | 0.00 | 0.00 | 75 | 1014.9 |
| 20260506043435 | 49 | 293 | 8.7 | 16.5 | 0.00 | 0.00 | 0.00 | 75 | 1014.9 |
| 20260506042929 | 49 | 293 | 7.0 | 19.1 | 0.00 | 0.00 | 0.00 | 75 | 1014.9 |
| 20260506042423 | 49 | 288 | 8.7 | 19.1 | 0.00 | 0.00 | 0.00 | 75 | 1014.8 |
| 20260506041917 | 49 | 293 | 7.0 | 15.6 | 0.00 | 0.00 | 0.00 | 75 | 1014.8 |
| 20260506041411 | 49 | 290 | 9.6 | 15.6 | 0.00 | 0.00 | 0.00 | 75 | 1014.6 |
| 20260506040905 | 49 | 292 | 10.4 | 18.2 | 0.00 | 0.00 | 0.00 | 75 | 1014.6 |
| 20260506040359 | 49 | 286 | 10.4 | 19.1 | 0.00 | 0.00 | 0.00 | 75 | 1014.5 |
| 20260506035853 | 49 | 286 | 12.2 | 19.1 | 0.00 | 0.00 | 0.00 | 75 | 1014.5 |
| 20260506035347 | 49 | 288 | 13.9 | 20.0 | 0.00 | 0.00 | 0.00 | 75 | 1014.3 |
| 20260506034841 | 49 | 287 | 14.8 | 20.0 | 0.00 | 0.00 | 0.00 | 75 | 1014.2 |
| 20260506034335 | 49 | 286 | 13.9 | 23.5 | 0.00 | 0.00 | 0.00 | 75 | 1014.2 |
| 20260506033829 | 49 | 284 | 14.8 | 23.5 | 0.00 | 0.00 | 0.00 | 75 | 1014.1 |
| 20260506033323 | 49 | 288 | 13.0 | 23.5 | 0.00 | 0.00 | 0.00 | 75 | 1014.2 |
| 20260506032817 | 49 | 287 | 13.0 | 20.9 | 0.00 | 0.00 | 0.00 | 75 | 1014.2 |
| 20260506032311 | 49 | 287 | 14.8 | 20.9 | 0.00 | 0.00 | 0.00 | 76 | 1014.2 |
| 20260506031805 | 49 | 284 | 13.0 | 20.9 | 0.00 | 0.00 | 0.00 | 76 | 1014.2 |
| 20260506031259 | 49 | 287 | 11.3 | 20.9 | 0.00 | 0.00 | 0.00 | 76 | 1014.2 |
| 20260506030753 | 50 | 292 | 9.6 | 17.4 | 0.00 | 0.00 | 0.00 | 76 | 1014.1 |
| 20260506030247 | 50 | 288 | 11.3 | 19.1 | 0.00 | 0.00 | 0.00 | 76 | 1014.0 |
| 20260506025741 | 50 | 285 | 10.4 | 19.1 | 0.00 | 0.00 | 0.00 | 76 | 1013.8 |
| 20260506025235 | 50 | 283 | 11.3 | 19.1 | 0.00 | 0.00 | 0.00 | 76 | 1013.8 |
| 20260506024729 | 50 | 290 | 9.6 | 20.0 | 0.00 | 0.00 | 0.00 | 76 | 1013.8 |
| 20260506024223 | 50 | 284 | 11.3 | 20.0 | 0.00 | 0.00 | 0.00 | 76 | 1013.8 |
| 20260506023717 | 50 | 287 | 10.4 | 20.0 | 0.00 | 0.00 | 0.00 | 76 | 1013.8 |
| 20260506023211 | 50 | 287 | 13.9 | 20.9 | 0.00 | 0.00 | 0.00 | 76 | 1013.7 |
| 20260506022705 | 50 | 285 | 13.0 | 20.9 | 0.00 | 0.00 | 0.00 | 76 | 1013.7 |
| 20260506022159 | 50 | 287 | 11.3 | 20.0 | 0.00 | 0.00 | 0.00 | 76 | 1013.6 |
| 20260506021653 | 50 | 289 | 13.9 | 17.4 | 0.00 | 0.00 | 0.00 | 76 | 1013.5 |
| 20260506021147 | 50 | 282 | 12.2 | 21.7 | 0.00 | 0.00 | 0.00 | 76 | 1013.4 |
| 20260506020641 | 50 | 282 | 11.3 | 21.7 | 0.00 | 0.00 | 0.00 | 76 | 1013.3 |
| 20260506020135 | 51 | 272 | 11.3 | 21.7 | 0.00 | 0.00 | 0.00 | 76 | 1013.2 |
| 20260506015629 | 51 | 282 | 13.0 | 20.0 | 0.00 | 0.00 | 0.00 | 76 | 1013.2 |
| 20260506015123 | 51 | 278 | 9.6 | 19.1 | 0.00 | 0.00 | 0.00 | 76 | 1013.2 |
| 20260506014617 | 51 | 279 | 8.7 | 18.2 | 0.00 | 0.00 | 0.00 | 76 | 1013.3 |
| 20260506014111 | 52 | 280 | 9.6 | 18.2 | 0.00 | 0.00 | 0.00 | 76 | 1013.4 |
| 20260506013605 | 52 | 269 | 6.1 | 19.1 | 0.00 | 0.00 | 0.00 | 76 | 1013.3 |
| 20260506013059 | 52 | 276 | 8.7 | 19.1 | 0.00 | 0.00 | 0.00 | 76 | 1013.3 |
| 20260506012553 | 53 | 273 | 8.7 | 19.1 | 0.00 | 0.00 | 0.00 | 76 | 1013.3 |
| 20260506012047 | 53 | 275 | 8.7 | 20.0 | 0.00 | 0.00 | 0.00 | 76 | 1013.3 |
| 20260506011541 | 53 | 275 | 8.7 | 20.0 | 0.00 | 0.00 | 0.00 | 76 | 1013.2 |
| 20260506011035 | 52 | 284 | 13.9 | 15.6 | 0.00 | 0.00 | 0.00 | 76 | 1013.2 |
| 20260506010529 | 52 | 285 | 13.9 | 18.2 | 0.00 | 0.00 | 0.00 | 76 | 1013.2 |
| 20260506010023 | 54 | 278 | 9.6 | 18.2 | 0.00 | 0.00 | 0.00 | 76 | 1013.2 |
| 20260506005517 | 54 | 277 | 7.8 | 20.0 | 0.00 | 0.00 | 0.00 | 76 | 1013.2 |
| 20260506005011 | 53 | 281 | 11.3 | 20.0 | 0.00 | 0.00 | 0.00 | 76 | 1013.1 |
| 20260506004505 | 54 | 283 | 12.2 | 20.0 | 0.00 | 0.00 | 0.00 | 76 | 1013.1 |
| 20260506004000 | 55 | 278 | 10.4 | 20.0 | 0.00 | 0.00 | 0.00 | 76 | 1012.9 |
| 20260506003453 | 54 | 284 | 11.3 | 20.9 | 0.00 | 0.00 | 0.00 | 76 | 1013.0 |
| 20260506002947 | 56 | 275 | 8.7 | 20.9 | 0.00 | 0.00 | 0.00 | 76 | 1013.0 |
| 20260506002441 | 56 | 277 | 8.7 | 20.0 | 0.00 | 0.00 | 0.00 | 77 | 1013.1 |
| 20260506001935 | 55 | 282 | 13.0 | 20.0 | 0.00 | 0.00 | 0.00 | 77 | 1013.0 |
| 20260506001429 | 55 | 284 | 11.3 | 20.0 | 0.00 | 0.00 | 0.00 | 76 | 1012.9 |
| 20260506000923 | 55 | 284 | 11.3 | 21.7 | 0.00 | 0.00 | 0.00 | 76 | 1013.0 |
| 20260506000417 | 54 | 289 | 14.8 | 21.7 | 0.00 | 0.00 | 0.00 | 76 | 1013.0 |
| 20260505235911 | 56 | 284 | 10.4 | 16.5 | 0.00 | 0.00 | 0.00 | 76 | 1012.9 |
| 20260505235405 | 56 | 282 | 9.6 | 20.9 | 0.00 | 0.00 | 0.00 | 77 | 1012.9 |
| 20260505234859 | 55 | 284 | 15.6 | 20.9 | 0.00 | 0.00 | 0.00 | 77 | 1012.8 |
| 20260505234353 | 58 | 281 | 10.4 | 17.4 | 0.00 | 0.00 | 0.00 | 77 | 1012.8 |
| 20260505233847 | 57 | 283 | 11.3 | 21.7 | 0.00 | 0.00 | 0.00 | 76 | 1012.9 |
| 20260505233341 | 56 | 285 | 11.3 | 21.7 | 0.00 | 0.00 | 0.00 | 76 | 1012.8 |
| 20260505232835 | 57 | 285 | 12.2 | 23.5 | 0.00 | 0.00 | 0.00 | 76 | 1012.9 |
| 20260505232329 | 57 | 286 | 11.3 | 23.5 | 0.00 | 0.00 | 0.00 | 77 | 1013.0 |
| 20260505231823 | 56 | 288 | 11.3 | 20.9 | 0.00 | 0.00 | 0.00 | 77 | 1013.0 |
| 20260505231317 | 57 | 288 | 13.0 | 17.4 | 0.00 | 0.00 | 0.00 | 76 | 1012.9 |
| 20260505230811 | 60 | 284 | 7.8 | 17.4 | 0.00 | 0.00 | 0.00 | 76 | 1013.0 |
| 20260505230305 | 59 | 283 | 7.0 | 19.1 | 0.00 | 0.00 | 0.00 | 76 | 1013.2 |
| 20260505225759 | 57 | 287 | 13.0 | 19.1 | 0.00 | 0.00 | 0.00 | 77 | 1013.1 |
| 20260505225253 | 59 | 281 | 7.0 | 16.5 | 0.00 | 0.00 | 0.00 | 76 | 1013.2 |
| 20260505224747 | 59 | 279 | 7.8 | 18.2 | 0.00 | 0.00 | 0.00 | 76 | 1013.2 |
| 20260505224241 | 59 | 285 | 8.7 | 18.2 | 0.00 | 0.00 | 0.00 | 76 | 1013.2 |
| 20260505223735 | 60 | 280 | 7.8 | 13.9 | 0.00 | 0.00 | 0.00 | 76 | 1013.3 |
| 20260505223229 | 60 | 281 | 7.0 | 14.8 | 0.00 | 0.00 | 0.00 | 77 | 1013.3 |
| 20260505222723 | 60 | 280 | 8.7 | 17.4 | 0.00 | 0.00 | 0.00 | 77 | 1013.3 |
| 20260505222217 | 59 | 279 | 7.8 | 18.2 | 0.00 | 0.00 | 0.00 | 76 | 1013.4 |
| 20260505221711 | 59 | 278 | 8.7 | 18.2 | 0.00 | 0.00 | 0.00 | 76 | 1013.4 |
| 20260505221205 | 60 | 270 | 6.1 | 24.3 | 0.00 | 0.00 | 0.00 | 76 | 1013.5 |
| 20260505220659 | 59 | 273 | 7.8 | 24.3 | 0.00 | 0.00 | 0.00 | 76 | 1013.5 |
| 20260505220153 | 59 | 283 | 8.7 | 20.9 | 0.00 | 0.00 | 0.00 | 76 | 1013.5 |
| 20260505215647 | 59 | 274 | 7.0 | 20.9 | 0.00 | 0.00 | 0.00 | 76 | 1013.5 |
| 20260505215141 | 59 | 275 | 7.8 | 20.9 | 0.00 | 0.00 | 0.00 | 76 | 1013.5 |
| 20260505214635 | 59 | 273 | 8.7 | 20.0 | 0.00 | 0.00 | 0.00 | 76 | 1013.6 |
| 20260505214129 | 60 | 279 | 8.7 | 19.1 | 0.00 | 0.00 | 0.00 | 76 | 1013.6 |
| 20260505213624 | 59 | 269 | 7.8 | 19.1 | 0.00 | 0.00 | 0.00 | 76 | 1013.7 |
| 20260505213117 | 60 | 283 | 7.0 | 20.0 | 0.00 | 0.00 | 0.00 | 76 | 1013.8 |
| 20260505212611 | 59 | 271 | 7.8 | 20.0 | 0.00 | 0.00 | 0.00 | 76 | 1013.6 |
| 20260505212105 | 58 | 272 | 7.8 | 21.7 | 0.00 | 0.00 | 0.00 | 76 | 1013.8 |
| 20260505211559 | 59 | 278 | 8.7 | 20.9 | 0.00 | 0.00 | 0.00 | 76 | 1013.7 |
| 20260505211053 | 59 | 259 | 7.0 | 20.9 | 0.00 | 0.00 | 0.00 | 76 | 1013.8 |
| 20260505210547 | 58 | 277 | 12.2 | 19.1 | 0.00 | 0.00 | 0.00 | 76 | 1013.7 |
| 20260505210041 | 59 | 278 | 9.6 | 22.6 | 0.00 | 0.00 | 0.00 | 76 | 1013.7 |
| 20260505205535 | 59 | 281 | 11.3 | 22.6 | 0.00 | 0.00 | 0.00 | 76 | 1013.8 |
| 20260505205029 | 60 | 272 | 7.8 | 19.1 | 0.00 | 0.00 | 0.00 | 76 | 1013.7 |
| 20260505204523 | 58 | 285 | 12.2 | 19.1 | 0.00 | 0.00 | 0.00 | 76 | 1013.6 |
| 20260505204017 | 59 | 282 | 13.0 | 21.7 | 0.00 | 0.00 | 0.00 | 76 | 1013.6 |
| 20260505203511 | 59 | 287 | 11.3 | 21.7 | 0.00 | 0.00 | 0.00 | 76 | 1013.7 |
| 20260505203005 | 60 | 274 | 8.7 | 20.0 | 0.00 | 0.00 | 0.00 | 76 | 1013.7 |
| 20260505202459 | 60 | 276 | 7.8 | 20.0 | 0.00 | 0.00 | 0.00 | 76 | 1013.6 |
| 20260505201953 | 61 | 272 | 6.1 | 18.2 | 0.00 | 0.00 | 0.00 | 76 | 1013.8 |
| 20260505201447 | 60 | 272 | 7.0 | 18.2 | 0.00 | 0.00 | 0.00 | 76 | 1013.8 |
| 20260505200941 | 60 | 281 | 7.0 | 13.9 | 0.00 | 0.00 | 0.00 | 76 | 1013.8 |
| 20260505200435 | 61 | 283 | 4.3 | 12.2 | 0.00 | 0.00 | 0.00 | 76 | 1013.9 |
| 20260505195929 | 61 | 286 | 4.3 | 12.2 | 0.00 | 0.00 | 0.00 | 76 | 1013.9 |
| 20260505195423 | 61 | 278 | 5.2 | 12.2 | 0.00 | 0.00 | 0.00 | 76 | 1013.9 |